Year,Month,Day,Hour,Minute,Value (Times are PST for windspeed in km/hr)
2007,05,07,00,00,1.40
2007,05,07,00,01,0.80
2007,05,07,00,02,1.40
2007,05,07,00,03,2.90
2007,05,07,00,04,3.00
2007,05,07,00,05,3.50
2007,05,07,00,06,0.20
2007,05,07,00,07,0.00
2007,05,07,00,08,0.70
2007,05,07,00,09,0.30
2007,05,07,00,10,2.20
2007,05,07,00,11,4.60
2007,05,07,00,12,4.10
2007,05,07,00,13,2.30
2007,05,07,00,14,0.00
2007,05,07,00,15,0.00
2007,05,07,00,16,0.00
2007,05,07,00,17,0.00
2007,05,07,00,18,0.00
2007,05,07,00,19,0.70
2007,05,07,00,20,0.70
2007,05,07,00,21,0.40
2007,05,07,00,22,0.70
2007,05,07,00,23,1.50
2007,05,07,00,24,1.60
2007,05,07,00,25,0.50
2007,05,07,00,26,0.20
2007,05,07,00,27,0.90
2007,05,07,00,28,1.30
2007,05,07,00,29,0.10
2007,05,07,00,30,0.70
2007,05,07,00,31,0.00
2007,05,07,00,32,0.00
2007,05,07,00,33,0.00
2007,05,07,00,34,1.40
2007,05,07,00,35,0.50
2007,05,07,00,36,0.00
2007,05,07,00,37,0.00
2007,05,07,00,38,0.00
2007,05,07,00,39,0.00
2007,05,07,00,40,0.00
2007,05,07,00,41,0.00
2007,05,07,00,42,0.00
2007,05,07,00,43,0.00
2007,05,07,00,44,0.20
2007,05,07,00,45,0.00
2007,05,07,00,46,0.00
2007,05,07,00,47,0.00
2007,05,07,00,48,0.00
2007,05,07,00,49,0.00
2007,05,07,00,50,0.00
2007,05,07,00,51,0.10
2007,05,07,00,52,0.00
2007,05,07,00,53,0.00
2007,05,07,00,54,0.00
2007,05,07,00,55,0.00
2007,05,07,00,56,0.00
2007,05,07,00,57,0.00
2007,05,07,00,58,0.00
2007,05,07,00,59,0.00
2007,05,07,01,00,1.00
2007,05,07,01,01,1.40
2007,05,07,01,02,0.00
2007,05,07,01,03,0.40
2007,05,07,01,04,0.20
2007,05,07,01,05,0.20
2007,05,07,01,06,0.00
2007,05,07,01,07,0.00
2007,05,07,01,08,0.00
2007,05,07,01,09,0.00
2007,05,07,01,10,0.00
2007,05,07,01,11,0.30
2007,05,07,01,12,0.00
2007,05,07,01,13,0.00
2007,05,07,01,14,0.00
2007,05,07,01,15,0.00
2007,05,07,01,16,0.00
2007,05,07,01,17,0.40
2007,05,07,01,18,0.10
2007,05,07,01,19,0.00
2007,05,07,01,20,0.00
2007,05,07,01,21,0.00
2007,05,07,01,22,0.00
2007,05,07,01,23,0.20
2007,05,07,01,24,0.20
2007,05,07,01,25,0.00
2007,05,07,01,26,0.00
2007,05,07,01,27,0.30
2007,05,07,01,28,0.00
2007,05,07,01,29,0.00
2007,05,07,01,30,0.00
2007,05,07,01,31,0.00
2007,05,07,01,32,1.40
2007,05,07,01,33,1.10
2007,05,07,01,34,0.50
2007,05,07,01,35,1.30
2007,05,07,01,36,0.30
2007,05,07,01,37,0.60
2007,05,07,01,38,0.60
2007,05,07,01,39,3.50
2007,05,07,01,40,2.40
2007,05,07,01,41,3.60
2007,05,07,01,42,5.70
2007,05,07,01,43,5.10
2007,05,07,01,44,6.00
2007,05,07,01,45,2.10
2007,05,07,01,46,1.00
2007,05,07,01,47,4.00
2007,05,07,01,48,1.80
2007,05,07,01,49,0.00
2007,05,07,01,50,0.00
2007,05,07,01,51,0.00
2007,05,07,01,52,0.00
2007,05,07,01,53,0.00
2007,05,07,01,54,0.20
2007,05,07,01,55,0.00
2007,05,07,01,56,0.00
2007,05,07,01,57,0.00
2007,05,07,01,58,0.00
2007,05,07,01,59,0.00
2007,05,07,02,00,0.00
2007,05,07,02,01,0.00
2007,05,07,02,02,0.00
2007,05,07,02,03,0.00
2007,05,07,02,04,0.00
2007,05,07,02,05,0.00
2007,05,07,02,06,0.00
2007,05,07,02,07,1.60
2007,05,07,02,08,0.80
2007,05,07,02,09,0.10
2007,05,07,02,10,0.00
2007,05,07,02,11,0.20
2007,05,07,02,12,0.00
2007,05,07,02,13,0.30
2007,05,07,02,14,0.40
2007,05,07,02,15,0.00
2007,05,07,02,16,0.00
2007,05,07,02,17,0.00
2007,05,07,02,18,0.00
2007,05,07,02,19,0.00
2007,05,07,02,20,0.00
2007,05,07,02,21,0.00
2007,05,07,02,22,0.30
2007,05,07,02,23,0.00
2007,05,07,02,24,0.20
2007,05,07,02,25,0.00
2007,05,07,02,26,0.00
2007,05,07,02,27,0.00
2007,05,07,02,28,0.00
2007,05,07,02,29,0.20
2007,05,07,02,30,0.00
2007,05,07,02,31,0.00
2007,05,07,02,32,0.00
2007,05,07,02,33,0.00
2007,05,07,02,34,0.00
2007,05,07,02,35,0.00
2007,05,07,02,36,0.00
2007,05,07,02,37,0.00
2007,05,07,02,38,0.00
2007,05,07,02,39,0.00
2007,05,07,02,40,0.00
2007,05,07,02,41,0.00
2007,05,07,02,42,0.00
2007,05,07,02,43,0.00
2007,05,07,02,44,0.00
2007,05,07,02,45,0.00
2007,05,07,02,46,0.00
2007,05,07,02,47,0.00
2007,05,07,02,48,0.00
2007,05,07,02,49,0.00
2007,05,07,02,50,0.00
2007,05,07,02,51,0.00
2007,05,07,02,52,0.00
2007,05,07,02,53,0.00
2007,05,07,02,54,0.00
2007,05,07,02,55,0.00
2007,05,07,02,56,0.00
2007,05,07,02,57,0.00
2007,05,07,02,58,0.00
2007,05,07,02,59,0.00
2007,05,07,03,00,0.00
2007,05,07,03,01,0.00
2007,05,07,03,02,0.00
2007,05,07,03,03,0.00
2007,05,07,03,04,0.00
2007,05,07,03,05,0.00
2007,05,07,03,06,0.50
2007,05,07,03,07,1.10
2007,05,07,03,08,0.10
2007,05,07,03,09,0.00
2007,05,07,03,10,0.00
2007,05,07,03,11,0.00
2007,05,07,03,12,0.00
2007,05,07,03,13,0.00
2007,05,07,03,14,0.00
2007,05,07,03,15,0.00
2007,05,07,03,16,0.00
2007,05,07,03,17,1.10
2007,05,07,03,18,0.70
2007,05,07,03,19,1.10
2007,05,07,03,20,4.50
2007,05,07,03,21,3.80
2007,05,07,03,22,4.90
2007,05,07,03,23,4.30
2007,05,07,03,24,4.80
2007,05,07,03,25,4.30
2007,05,07,03,26,6.10
2007,05,07,03,27,3.70
2007,05,07,03,28,4.60
2007,05,07,03,29,2.60
2007,05,07,03,30,1.90
2007,05,07,03,31,3.70
2007,05,07,03,32,3.90
2007,05,07,03,33,1.90
2007,05,07,03,34,3.50
2007,05,07,03,35,3.90
2007,05,07,03,36,5.70
2007,05,07,03,37,7.00
2007,05,07,03,38,4.70
2007,05,07,03,39,3.80
2007,05,07,03,40,2.20
2007,05,07,03,41,3.20
2007,05,07,03,42,3.10
2007,05,07,03,43,5.00
2007,05,07,03,44,3.70
2007,05,07,03,45,4.30
2007,05,07,03,46,2.60
2007,05,07,03,47,2.20
2007,05,07,03,48,2.90
2007,05,07,03,49,1.10
2007,05,07,03,50,2.40
2007,05,07,03,51,0.90
2007,05,07,03,52,2.20
2007,05,07,03,53,2.30
2007,05,07,03,54,1.50
2007,05,07,03,55,2.00
2007,05,07,03,56,1.60
2007,05,07,03,57,0.60
2007,05,07,03,58,0.00
2007,05,07,03,59,0.00
2007,05,07,04,00,0.00
2007,05,07,04,01,0.00
2007,05,07,04,02,0.00
2007,05,07,04,03,0.10
2007,05,07,04,04,0.40
2007,05,07,04,05,0.00
2007,05,07,04,06,0.70
2007,05,07,04,07,0.00
2007,05,07,04,08,0.00
2007,05,07,04,09,0.00
2007,05,07,04,10,0.10
2007,05,07,04,11,0.00
2007,05,07,04,12,0.00
2007,05,07,04,13,0.00
2007,05,07,04,14,0.00
2007,05,07,04,15,0.10
2007,05,07,04,16,1.00
2007,05,07,04,17,0.00
2007,05,07,04,18,0.00
2007,05,07,04,19,0.00
2007,05,07,04,20,0.60
2007,05,07,04,21,2.20
2007,05,07,04,22,1.30
2007,05,07,04,23,2.40
2007,05,07,04,24,1.00
2007,05,07,04,25,0.60
2007,05,07,04,26,0.60
2007,05,07,04,27,0.00
2007,05,07,04,28,0.00
2007,05,07,04,29,0.00
2007,05,07,04,30,0.00
2007,05,07,04,31,0.10
2007,05,07,04,32,0.30
2007,05,07,04,33,0.00
2007,05,07,04,34,0.00
2007,05,07,04,35,0.40
2007,05,07,04,36,0.70
2007,05,07,04,37,1.10
2007,05,07,04,38,1.70
2007,05,07,04,39,1.80
2007,05,07,04,40,1.50
2007,05,07,04,41,0.90
2007,05,07,04,42,1.00
2007,05,07,04,43,0.50
2007,05,07,04,44,0.80
2007,05,07,04,45,1.40
2007,05,07,04,46,0.30
2007,05,07,04,47,0.50
2007,05,07,04,48,0.00
2007,05,07,04,49,0.00
2007,05,07,04,50,1.60
2007,05,07,04,51,3.10
2007,05,07,04,52,2.30
2007,05,07,04,53,4.90
2007,05,07,04,54,3.80
2007,05,07,04,55,2.00
2007,05,07,04,56,0.50
2007,05,07,04,57,2.30
2007,05,07,04,58,2.10
2007,05,07,04,59,2.40
2007,05,07,05,00,3.70
2007,05,07,05,01,1.70
2007,05,07,05,02,3.50
2007,05,07,05,03,1.60
2007,05,07,05,04,0.20
2007,05,07,05,05,0.10
2007,05,07,05,06,0.00
2007,05,07,05,07,0.00
2007,05,07,05,08,0.00
2007,05,07,05,09,0.00
2007,05,07,05,10,0.70
2007,05,07,05,11,0.70
2007,05,07,05,12,1.70
2007,05,07,05,13,1.20
2007,05,07,05,14,1.20
2007,05,07,05,15,0.10
2007,05,07,05,16,0.10
2007,05,07,05,17,0.00
2007,05,07,05,18,0.10
2007,05,07,05,19,2.10
2007,05,07,05,20,3.50
2007,05,07,05,21,2.80
2007,05,07,05,22,2.50
2007,05,07,05,23,1.00
2007,05,07,05,24,0.60
2007,05,07,05,25,1.10
2007,05,07,05,26,0.00
2007,05,07,05,27,0.00
2007,05,07,05,28,0.00
2007,05,07,05,29,0.00
2007,05,07,05,30,0.00
2007,05,07,05,31,0.00
2007,05,07,05,32,0.10
2007,05,07,05,33,0.60
2007,05,07,05,34,0.70
2007,05,07,05,35,1.40
2007,05,07,05,36,1.10
2007,05,07,05,37,1.60
2007,05,07,05,38,1.60
2007,05,07,05,39,2.20
2007,05,07,05,40,2.00
2007,05,07,05,41,0.40
2007,05,07,05,42,0.60
2007,05,07,05,43,0.70
2007,05,07,05,44,0.00
2007,05,07,05,45,0.00
2007,05,07,05,46,0.00
2007,05,07,05,47,1.50
2007,05,07,05,48,1.80
2007,05,07,05,49,0.40
2007,05,07,05,50,0.00
2007,05,07,05,51,1.30
2007,05,07,05,52,1.30
2007,05,07,05,53,1.00
2007,05,07,05,54,0.90
2007,05,07,05,55,0.80
2007,05,07,05,56,0.10
2007,05,07,05,57,0.00
2007,05,07,05,58,0.00
2007,05,07,05,59,0.00
2007,05,07,06,00,0.00
2007,05,07,06,01,1.30
2007,05,07,06,02,1.30
2007,05,07,06,03,0.50
2007,05,07,06,04,0.30
2007,05,07,06,05,2.00
2007,05,07,06,06,2.60
2007,05,07,06,07,1.90
2007,05,07,06,08,2.70
2007,05,07,06,09,2.30
2007,05,07,06,10,3.20
2007,05,07,06,11,2.70
2007,05,07,06,12,2.40
2007,05,07,06,13,1.60
2007,05,07,06,14,2.00
2007,05,07,06,15,1.10
2007,05,07,06,16,0.60
2007,05,07,06,17,1.30
2007,05,07,06,18,0.70
2007,05,07,06,19,3.00
2007,05,07,06,20,2.80
2007,05,07,06,21,2.60
2007,05,07,06,22,0.90
2007,05,07,06,23,0.00
2007,05,07,06,24,0.20
2007,05,07,06,25,0.10
2007,05,07,06,26,0.00
2007,05,07,06,27,0.00
2007,05,07,06,28,0.00
2007,05,07,06,29,0.00
2007,05,07,06,30,0.00
2007,05,07,06,31,0.00
2007,05,07,06,32,0.00
2007,05,07,06,33,0.00
2007,05,07,06,34,0.00
2007,05,07,06,35,0.00
2007,05,07,06,36,0.00
2007,05,07,06,37,0.00
2007,05,07,06,38,0.00
2007,05,07,06,39,0.00
2007,05,07,06,40,0.00
2007,05,07,06,41,0.00
2007,05,07,06,42,0.00
2007,05,07,06,43,0.00
2007,05,07,06,44,0.00
2007,05,07,06,45,0.00
2007,05,07,06,46,0.00
2007,05,07,06,47,0.00
2007,05,07,06,48,0.00
2007,05,07,06,49,0.00
2007,05,07,06,50,0.00
2007,05,07,06,51,0.00
2007,05,07,06,52,0.00
2007,05,07,06,53,0.00
2007,05,07,06,54,0.00
2007,05,07,06,55,0.00
2007,05,07,06,56,0.00
2007,05,07,06,57,0.00
2007,05,07,06,58,0.00
2007,05,07,06,59,0.00
2007,05,07,07,00,0.40
2007,05,07,07,01,0.50
2007,05,07,07,02,0.90
2007,05,07,07,03,0.00
2007,05,07,07,04,0.00
2007,05,07,07,05,0.80
2007,05,07,07,06,0.90
2007,05,07,07,07,0.10
2007,05,07,07,08,0.90
2007,05,07,07,09,2.60
2007,05,07,07,10,1.30
2007,05,07,07,11,0.30
2007,05,07,07,12,0.10
2007,05,07,07,13,0.10
2007,05,07,07,14,0.10
2007,05,07,07,15,0.20
2007,05,07,07,16,0.00
2007,05,07,07,17,0.10
2007,05,07,07,18,0.00
2007,05,07,07,19,0.00
2007,05,07,07,20,0.00
2007,05,07,07,21,0.00
2007,05,07,07,22,0.00
2007,05,07,07,23,0.00
2007,05,07,07,24,0.00
2007,05,07,07,25,0.00
2007,05,07,07,26,0.80
2007,05,07,07,27,1.30
2007,05,07,07,28,0.40
2007,05,07,07,29,0.60
2007,05,07,07,30,2.60
2007,05,07,07,31,2.50
2007,05,07,07,32,1.10
2007,05,07,07,33,1.10
2007,05,07,07,34,3.40
2007,05,07,07,35,4.10
2007,05,07,07,36,2.50
2007,05,07,07,37,1.00
2007,05,07,07,38,1.80
2007,05,07,07,39,1.40
2007,05,07,07,40,1.90
2007,05,07,07,41,1.90
2007,05,07,07,42,1.00
2007,05,07,07,43,1.10
2007,05,07,07,44,2.30
2007,05,07,07,45,1.70
2007,05,07,07,46,1.50
2007,05,07,07,47,4.10
2007,05,07,07,48,1.90
2007,05,07,07,49,3.40
2007,05,07,07,50,4.20
2007,05,07,07,51,3.90
2007,05,07,07,52,0.30
2007,05,07,07,53,0.80
2007,05,07,07,54,0.70
2007,05,07,07,55,1.60
2007,05,07,07,56,0.90
2007,05,07,07,57,0.70
2007,05,07,07,58,1.50
2007,05,07,07,59,2.10
2007,05,07,08,00,3.20
2007,05,07,08,01,2.40
2007,05,07,08,02,2.20
2007,05,07,08,03,2.50
2007,05,07,08,04,2.80
2007,05,07,08,05,3.80
2007,05,07,08,06,3.70
2007,05,07,08,07,2.60
2007,05,07,08,08,2.80
2007,05,07,08,09,1.40
2007,05,07,08,10,3.80
2007,05,07,08,11,2.90
2007,05,07,08,12,1.10
2007,05,07,08,13,3.70
2007,05,07,08,14,1.20
2007,05,07,08,15,0.20
2007,05,07,08,16,1.80
2007,05,07,08,17,1.70
2007,05,07,08,18,0.90
2007,05,07,08,19,0.90
2007,05,07,08,20,1.20
2007,05,07,08,21,2.70
2007,05,07,08,22,1.50
2007,05,07,08,23,0.90
2007,05,07,08,24,2.90
2007,05,07,08,25,3.80
2007,05,07,08,26,1.20
2007,05,07,08,27,3.00
2007,05,07,08,28,0.70
2007,05,07,08,29,4.30
2007,05,07,08,30,4.60
2007,05,07,08,31,1.50
2007,05,07,08,32,0.30
2007,05,07,08,33,0.80
2007,05,07,08,34,2.90
2007,05,07,08,35,0.80
2007,05,07,08,36,0.80
2007,05,07,08,37,0.10
2007,05,07,08,38,5.00
2007,05,07,08,39,3.80
2007,05,07,08,40,4.40
2007,05,07,08,41,1.00
2007,05,07,08,42,3.30
2007,05,07,08,43,4.60
2007,05,07,08,44,2.60
2007,05,07,08,45,2.00
2007,05,07,08,46,4.00
2007,05,07,08,47,5.70
2007,05,07,08,48,6.40
2007,05,07,08,49,4.90
2007,05,07,08,50,2.20
2007,05,07,08,51,3.60
2007,05,07,08,52,2.40
2007,05,07,08,53,2.00
2007,05,07,08,54,3.20
2007,05,07,08,55,5.00
2007,05,07,08,56,4.30
2007,05,07,08,57,3.20
2007,05,07,08,58,2.30
2007,05,07,08,59,3.90
2007,05,07,09,00,3.50
2007,05,07,09,01,5.80
2007,05,07,09,02,4.30
2007,05,07,09,03,1.80
2007,05,07,09,04,3.10
2007,05,07,09,05,3.40
2007,05,07,09,06,3.80
2007,05,07,09,07,3.20
2007,05,07,09,08,5.40
2007,05,07,09,09,7.00
2007,05,07,09,10,5.60
2007,05,07,09,11,5.20
2007,05,07,09,12,4.30
2007,05,07,09,13,5.20
2007,05,07,09,14,2.70
2007,05,07,09,15,1.70
2007,05,07,09,16,3.90
2007,05,07,09,17,3.20
2007,05,07,09,18,3.70
2007,05,07,09,19,5.60
2007,05,07,09,20,4.60
2007,05,07,09,21,6.10
2007,05,07,09,22,6.10
2007,05,07,09,23,4.20
2007,05,07,09,24,6.30
2007,05,07,09,25,9.60
2007,05,07,09,26,4.80
2007,05,07,09,27,3.60
2007,05,07,09,28,6.90
2007,05,07,09,29,6.40
2007,05,07,09,30,4.70
2007,05,07,09,31,4.30
2007,05,07,09,32,4.60
2007,05,07,09,33,8.10
2007,05,07,09,34,6.40
2007,05,07,09,35,5.20
2007,05,07,09,36,6.30
2007,05,07,09,37,3.60
2007,05,07,09,38,6.90
2007,05,07,09,39,4.60
2007,05,07,09,40,8.80
2007,05,07,09,41,4.50
2007,05,07,09,42,7.60
2007,05,07,09,43,3.90
2007,05,07,09,44,6.30
2007,05,07,09,45,4.00
2007,05,07,09,46,3.80
2007,05,07,09,47,3.40
2007,05,07,09,48,4.10
2007,05,07,09,49,1.80
2007,05,07,09,50,6.10
2007,05,07,09,51,5.20
2007,05,07,09,52,6.80
2007,05,07,09,53,2.20
2007,05,07,09,54,5.50
2007,05,07,09,55,4.00
2007,05,07,09,56,5.60
2007,05,07,09,57,6.80
2007,05,07,09,58,5.20
2007,05,07,09,59,7.30
2007,05,07,10,00,6.40
2007,05,07,10,01,5.80
2007,05,07,10,02,6.30
2007,05,07,10,03,6.40
2007,05,07,10,04,2.50
2007,05,07,10,05,2.50
2007,05,07,10,06,1.90
2007,05,07,10,07,3.10
2007,05,07,10,08,6.60
2007,05,07,10,09,3.80
2007,05,07,10,10,5.00
2007,05,07,10,11,1.60
2007,05,07,10,12,4.10
2007,05,07,10,13,6.70
2007,05,07,10,14,5.70
2007,05,07,10,15,6.60
2007,05,07,10,16,5.50
2007,05,07,10,17,4.00
2007,05,07,10,18,2.80
2007,05,07,10,19,3.60
2007,05,07,10,20,1.00
2007,05,07,10,21,1.70
2007,05,07,10,22,7.10
2007,05,07,10,23,8.10
2007,05,07,10,24,3.70
2007,05,07,10,25,2.70
2007,05,07,10,26,5.70
2007,05,07,10,27,3.80
2007,05,07,10,28,3.10
2007,05,07,10,29,3.70
2007,05,07,10,30,3.10
2007,05,07,10,31,6.30
2007,05,07,10,32,5.60
2007,05,07,10,33,3.50
2007,05,07,10,34,7.30
2007,05,07,10,35,3.20
2007,05,07,10,36,2.50
2007,05,07,10,37,6.70
2007,05,07,10,38,6.80
2007,05,07,10,39,12.10
2007,05,07,10,40,4.80
2007,05,07,10,41,2.60
2007,05,07,10,42,8.50
2007,05,07,10,43,6.20
2007,05,07,10,44,4.10
2007,05,07,10,45,8.10
2007,05,07,10,46,3.40
2007,05,07,10,47,6.20
2007,05,07,10,48,2.20
2007,05,07,10,49,5.10
2007,05,07,10,50,2.60
2007,05,07,10,51,3.50
2007,05,07,10,52,2.20
2007,05,07,10,53,0.80
2007,05,07,10,54,3.90
2007,05,07,10,55,4.10
2007,05,07,10,56,1.40
2007,05,07,10,57,1.90
2007,05,07,10,58,5.80
2007,05,07,10,59,5.90
2007,05,07,11,00,2.60
2007,05,07,11,01,2.70
2007,05,07,11,02,0.20
2007,05,07,11,03,4.00
2007,05,07,11,04,6.70
2007,05,07,11,05,4.90
2007,05,07,11,06,5.40
2007,05,07,11,07,3.10
2007,05,07,11,08,4.30
2007,05,07,11,09,6.50
2007,05,07,11,10,4.60
2007,05,07,11,11,1.60
2007,05,07,11,12,3.20
2007,05,07,11,13,3.00
2007,05,07,11,14,6.40
2007,05,07,11,15,7.90
2007,05,07,11,16,6.40
2007,05,07,11,17,5.70
2007,05,07,11,18,5.20
2007,05,07,11,19,10.40
2007,05,07,11,20,8.00
2007,05,07,11,21,2.80
2007,05,07,11,22,2.80
2007,05,07,11,23,2.80
2007,05,07,11,24,1.70
2007,05,07,11,25,3.80
2007,05,07,11,26,6.50
2007,05,07,11,27,5.30
2007,05,07,11,28,5.20
2007,05,07,11,29,5.00
2007,05,07,11,30,5.50
2007,05,07,11,31,6.20
2007,05,07,11,32,7.30
2007,05,07,11,33,2.90
2007,05,07,11,34,2.40
2007,05,07,11,35,7.60
2007,05,07,11,36,5.50
2007,05,07,11,37,4.70
2007,05,07,11,38,2.10
2007,05,07,11,39,2.20
2007,05,07,11,40,6.80
2007,05,07,11,41,5.40
2007,05,07,11,42,7.30
2007,05,07,11,43,6.30
2007,05,07,11,44,5.30
2007,05,07,11,45,3.90
2007,05,07,11,46,9.60
2007,05,07,11,47,8.20
2007,05,07,11,48,5.00
2007,05,07,11,49,6.60
2007,05,07,11,50,5.30
2007,05,07,11,51,7.80
2007,05,07,11,52,9.50
2007,05,07,11,53,9.60
2007,05,07,11,54,3.90
2007,05,07,11,55,6.70
2007,05,07,11,56,6.90
2007,05,07,11,57,2.80
2007,05,07,11,58,6.30
2007,05,07,11,59,6.90
2007,05,07,12,00,8.10
2007,05,07,12,01,8.10
2007,05,07,12,02,4.20
2007,05,07,12,03,4.30
2007,05,07,12,04,2.60
2007,05,07,12,05,8.20
2007,05,07,12,06,5.00
2007,05,07,12,07,5.40
2007,05,07,12,08,2.70
2007,05,07,12,09,3.10
2007,05,07,12,10,4.70
2007,05,07,12,11,1.40
2007,05,07,12,12,2.90
2007,05,07,12,13,3.20
2007,05,07,12,14,3.00
2007,05,07,12,15,1.50
2007,05,07,12,16,1.30
2007,05,07,12,17,2.70
2007,05,07,12,18,2.80
2007,05,07,12,19,3.20
2007,05,07,12,20,5.10
2007,05,07,12,21,4.00
2007,05,07,12,22,3.20
2007,05,07,12,23,3.80
2007,05,07,12,24,1.70
2007,05,07,12,25,2.20
2007,05,07,12,26,3.40
2007,05,07,12,27,6.00
2007,05,07,12,28,4.80
2007,05,07,12,29,5.20
2007,05,07,12,30,5.10
2007,05,07,12,31,4.90
2007,05,07,12,32,2.20
2007,05,07,12,33,1.80
2007,05,07,12,34,3.80
2007,05,07,12,35,6.90
2007,05,07,12,36,3.90
2007,05,07,12,37,11.60
2007,05,07,12,38,10.30
2007,05,07,12,39,4.10
2007,05,07,12,40,1.20
2007,05,07,12,41,4.30
2007,05,07,12,42,4.10
2007,05,07,12,43,5.20
2007,05,07,12,44,8.40
2007,05,07,12,45,4.80
2007,05,07,12,46,4.20
2007,05,07,12,47,7.80
2007,05,07,12,48,8.90
2007,05,07,12,49,11.00
2007,05,07,12,50,5.40
2007,05,07,12,51,6.30
2007,05,07,12,52,5.00
2007,05,07,12,53,4.50
2007,05,07,12,54,5.30
2007,05,07,12,55,1.00
2007,05,07,12,56,3.70
2007,05,07,12,57,4.60
2007,05,07,12,58,8.80
2007,05,07,12,59,4.90
2007,05,07,13,00,4.00
2007,05,07,13,01,6.30
2007,05,07,13,02,6.80
2007,05,07,13,03,5.40
2007,05,07,13,04,5.70
2007,05,07,13,05,7.90
2007,05,07,13,06,3.10
2007,05,07,13,07,6.70
2007,05,07,13,08,6.10
2007,05,07,13,09,5.10
2007,05,07,13,10,5.30
2007,05,07,13,11,3.90
2007,05,07,13,12,5.70
2007,05,07,13,13,5.70
2007,05,07,13,14,4.70
2007,05,07,13,15,4.10
2007,05,07,13,16,2.20
2007,05,07,13,17,3.10
2007,05,07,13,18,6.70
2007,05,07,13,19,6.10
2007,05,07,13,20,4.20
2007,05,07,13,21,5.90
2007,05,07,13,22,6.80
2007,05,07,13,23,4.30
2007,05,07,13,24,4.00
2007,05,07,13,25,5.20
2007,05,07,13,26,5.40
2007,05,07,13,27,7.00
2007,05,07,13,28,3.90
2007,05,07,13,29,4.40
2007,05,07,13,30,0.50
2007,05,07,13,31,0.30
2007,05,07,13,32,6.00
2007,05,07,13,33,4.90
2007,05,07,13,34,4.80
2007,05,07,13,35,6.20
2007,05,07,13,36,2.00
2007,05,07,13,37,3.90
2007,05,07,13,38,2.20
2007,05,07,13,39,2.10
2007,05,07,13,40,6.20
2007,05,07,13,41,6.40
2007,05,07,13,42,3.70
2007,05,07,13,43,5.30
2007,05,07,13,44,6.70
2007,05,07,13,45,1.80
2007,05,07,13,46,0.50
2007,05,07,13,47,1.20
2007,05,07,13,48,3.50
2007,05,07,13,49,2.80
2007,05,07,13,50,3.20
2007,05,07,13,51,3.90
2007,05,07,13,52,4.40
2007,05,07,13,53,1.90
2007,05,07,13,54,3.60
2007,05,07,13,55,2.80
2007,05,07,13,56,4.90
2007,05,07,13,57,4.30
2007,05,07,13,58,5.10
2007,05,07,13,59,6.20
2007,05,07,14,00,3.30
2007,05,07,14,01,4.90
2007,05,07,14,02,6.20
2007,05,07,14,03,6.00
2007,05,07,14,04,4.70
2007,05,07,14,05,7.20
2007,05,07,14,06,7.40
2007,05,07,14,07,5.90
2007,05,07,14,08,3.10
2007,05,07,14,09,5.20
2007,05,07,14,10,2.90
2007,05,07,14,11,6.40
2007,05,07,14,12,6.70
2007,05,07,14,13,6.20
2007,05,07,14,14,5.60
2007,05,07,14,15,3.60
2007,05,07,14,16,6.20
2007,05,07,14,17,3.80
2007,05,07,14,18,4.40
2007,05,07,14,19,4.10
2007,05,07,14,20,2.40
2007,05,07,14,21,5.60
2007,05,07,14,22,4.50
2007,05,07,14,23,5.50
2007,05,07,14,24,4.90
2007,05,07,14,25,3.70
2007,05,07,14,26,5.20
2007,05,07,14,27,7.10
2007,05,07,14,28,5.90
2007,05,07,14,29,4.90
2007,05,07,14,30,3.10
2007,05,07,14,31,4.60
2007,05,07,14,32,7.50
2007,05,07,14,33,6.10
2007,05,07,14,34,5.30
2007,05,07,14,35,2.60
2007,05,07,14,36,3.30
2007,05,07,14,37,2.40
2007,05,07,14,38,4.10
2007,05,07,14,39,4.20
2007,05,07,14,40,5.10
2007,05,07,14,41,5.70
2007,05,07,14,42,6.80
2007,05,07,14,43,6.40
2007,05,07,14,44,5.50
2007,05,07,14,45,4.70
2007,05,07,14,46,6.80
2007,05,07,14,47,2.10
2007,05,07,14,48,1.00
2007,05,07,14,49,4.30
2007,05,07,14,50,7.20
2007,05,07,14,51,5.50
2007,05,07,14,52,2.60
2007,05,07,14,53,1.70
2007,05,07,14,54,3.70
2007,05,07,14,55,7.30
2007,05,07,14,56,3.30
2007,05,07,14,57,6.90
2007,05,07,14,58,3.60
2007,05,07,14,59,3.30
2007,05,07,15,00,4.40
2007,05,07,15,01,2.40
2007,05,07,15,02,1.90
2007,05,07,15,03,3.10
2007,05,07,15,04,1.90
2007,05,07,15,05,4.30
2007,05,07,15,06,2.30
2007,05,07,15,07,1.90
2007,05,07,15,08,3.10
2007,05,07,15,09,4.90
2007,05,07,15,10,4.30
2007,05,07,15,11,5.70
2007,05,07,15,12,3.50
2007,05,07,15,13,5.10
2007,05,07,15,14,1.40
2007,05,07,15,15,0.80
2007,05,07,15,16,2.30
2007,05,07,15,17,4.10
2007,05,07,15,18,5.90
2007,05,07,15,19,4.80
2007,05,07,15,20,6.00
2007,05,07,15,21,4.70
2007,05,07,15,22,4.00
2007,05,07,15,23,2.60
2007,05,07,15,24,3.70
2007,05,07,15,25,4.20
2007,05,07,15,26,4.80
2007,05,07,15,27,5.10
2007,05,07,15,28,5.30
2007,05,07,15,29,7.70
2007,05,07,15,30,5.60
2007,05,07,15,31,4.90
2007,05,07,15,32,7.30
2007,05,07,15,33,4.30
2007,05,07,15,34,3.10
2007,05,07,15,35,5.50
2007,05,07,15,36,7.50
2007,05,07,15,37,6.30
2007,05,07,15,38,2.50
2007,05,07,15,39,0.60
2007,05,07,15,40,0.80
2007,05,07,15,41,0.80
2007,05,07,15,42,0.00
2007,05,07,15,43,3.30
2007,05,07,15,44,4.50
2007,05,07,15,45,2.90
2007,05,07,15,46,2.40
2007,05,07,15,47,1.60
2007,05,07,15,48,2.20
2007,05,07,15,49,3.50
2007,05,07,15,50,2.90
2007,05,07,15,51,3.90
2007,05,07,15,52,1.00
2007,05,07,15,53,2.70
2007,05,07,15,54,3.30
2007,05,07,15,55,2.80
2007,05,07,15,56,3.50
2007,05,07,15,57,4.40
2007,05,07,15,58,1.80
2007,05,07,15,59,5.10
2007,05,07,16,00,3.20
2007,05,07,16,01,7.40
2007,05,07,16,02,9.30
2007,05,07,16,03,8.10
2007,05,07,16,04,3.40
2007,05,07,16,05,1.10
2007,05,07,16,06,6.40
2007,05,07,16,07,11.10
2007,05,07,16,08,6.50
2007,05,07,16,09,7.20
2007,05,07,16,10,9.90
2007,05,07,16,11,8.50
2007,05,07,16,12,15.40
2007,05,07,16,13,12.40
2007,05,07,16,14,16.20
2007,05,07,16,15,12.90
2007,05,07,16,16,14.40
2007,05,07,16,17,14.80
2007,05,07,16,18,15.20
2007,05,07,16,19,14.20
2007,05,07,16,20,17.90
2007,05,07,16,21,14.80
2007,05,07,16,22,10.10
2007,05,07,16,23,9.20
2007,05,07,16,24,13.70
2007,05,07,16,25,11.50
2007,05,07,16,26,13.50
2007,05,07,16,27,11.20
2007,05,07,16,28,13.20
2007,05,07,16,29,10.80
2007,05,07,16,30,11.00
2007,05,07,16,31,9.90
2007,05,07,16,32,9.30
2007,05,07,16,33,10.10
2007,05,07,16,34,12.40
2007,05,07,16,35,17.00
2007,05,07,16,36,10.50
2007,05,07,16,37,9.90
2007,05,07,16,38,10.90
2007,05,07,16,39,12.20
2007,05,07,16,40,9.30
2007,05,07,16,41,8.00
2007,05,07,16,42,8.10
2007,05,07,16,43,12.90
2007,05,07,16,44,10.50
2007,05,07,16,45,12.80
2007,05,07,16,46,6.30
2007,05,07,16,47,13.30
2007,05,07,16,48,9.90
2007,05,07,16,49,10.70
2007,05,07,16,50,9.80
2007,05,07,16,51,12.00
2007,05,07,16,52,8.80
2007,05,07,16,53,6.50
2007,05,07,16,54,7.70
2007,05,07,16,55,8.40
2007,05,07,16,56,12.50
2007,05,07,16,57,7.40
2007,05,07,16,58,12.20
2007,05,07,16,59,10.10
2007,05,07,17,00,9.40
2007,05,07,17,01,13.80
2007,05,07,17,02,13.70
2007,05,07,17,03,11.90
2007,05,07,17,04,8.40
2007,05,07,17,05,8.30
2007,05,07,17,06,5.40
2007,05,07,17,07,6.70
2007,05,07,17,08,6.30
2007,05,07,17,09,8.20
2007,05,07,17,10,6.70
2007,05,07,17,11,6.90
2007,05,07,17,12,14.80
2007,05,07,17,13,10.60
2007,05,07,17,14,11.60
2007,05,07,17,15,8.00
2007,05,07,17,16,12.40
2007,05,07,17,17,16.10
2007,05,07,17,18,7.00
2007,05,07,17,19,5.50
2007,05,07,17,20,2.40
2007,05,07,17,21,5.40
2007,05,07,17,22,9.20
2007,05,07,17,23,8.90
2007,05,07,17,24,7.40
2007,05,07,17,25,10.00
2007,05,07,17,26,11.70
2007,05,07,17,27,10.40
2007,05,07,17,28,10.20
2007,05,07,17,29,11.50
2007,05,07,17,30,8.50
2007,05,07,17,31,5.70
2007,05,07,17,32,6.30
2007,05,07,17,33,6.30
2007,05,07,17,34,3.50
2007,05,07,17,35,9.00
2007,05,07,17,36,4.90
2007,05,07,17,37,8.50
2007,05,07,17,38,9.50
2007,05,07,17,39,8.50
2007,05,07,17,40,9.50
2007,05,07,17,41,10.50
2007,05,07,17,42,12.70
2007,05,07,17,43,9.40
2007,05,07,17,44,7.10
2007,05,07,17,45,6.90
2007,05,07,17,46,6.20
2007,05,07,17,47,5.70
2007,05,07,17,48,9.30
2007,05,07,17,49,9.90
2007,05,07,17,50,9.60
2007,05,07,17,51,8.60
2007,05,07,17,52,8.40
2007,05,07,17,53,4.80
2007,05,07,17,54,9.70
2007,05,07,17,55,11.60
2007,05,07,17,56,6.40
2007,05,07,17,57,6.90
2007,05,07,17,58,6.20
2007,05,07,17,59,4.70
2007,05,07,18,00,4.10
2007,05,07,18,01,5.70
2007,05,07,18,02,13.20
2007,05,07,18,03,11.20
2007,05,07,18,04,8.90